Location: *
(17.3280°S, 114.7300°W)
Time: 07:39:15
(UTC+00:00)

GPS 2-17 Rocket1 - Pass Details

Date: 05 August 2020
Orbit: 571 x 659 km, 20.3° (Epoch: 20 September)

Event Time Altitude Azimuth Distance (km) Brightness Sun altitude
Rises 13:38:24 0° 297° (WNW) 2,885 6.0 -6.4°
Reaches altitude 10° 13:40:47 10° 303° (WNW) 1,995 5.3 -5.9°
Maximum altitude 13:45:20 49° 17° (NNE) 821 4.0 -4.8°
Drops below altitude 10° 13:49:59 10° 92° (E) 2,047 7.2 -3.8°
Sets 13:52:28 0° 97° (E) 2,968 8.0 -3.2°
